SCP
0 0 0 0 0 0 0 0 0 0 0 0 0 0 0 0 0 0 0 0 0 0 0 0 0 0 0 0 0 0 0 0 0 0 0 0 0 0
0 0 0 0 0 0 0 0 0 0 0 0 0 0 0 0 0 0 0 0 0 0 0 0 0 0 0 0 0 0 0 0 0 0 0 0 0 0
0 0 0 0 0 0 0 0 0 0 0 0 0 0 0 0 0 0 0 0 0 0 0 0 0 0 0 0 0 0 0 0 0 0 0 0 0 0
0 0 0 0 0 0 0 0 0 0 0 0 0 0 0 0 0 0 0 0 0 0 0 0 0 0 0 0 0 0 0 0 0 0 0 0 0 0
0 0 0 0 0 0 0 0 0 0 0 0 0 0 0 0 0 0 0 0 0 0 0 0 0 0 0 0 0 0 0 0 0 0 0 0 0 0
0 0 0 0 0 0 0 0 0 0 0 0 0 0 0 0 0 0 0 0 0 0 0 0 0 0 0 0 0 0 0 0 0 0 0 0 0 0
0 0 0 0 0 0 0 0 0 0 0 0 0 0 0 0 0 0 0 0 0 0 0 0 0 0 0 0 0 0 0 0 0 0 0 0 0 0
0 0 0 0 0 0 0 0 0 0 0 0 0 0 0 0 0 0 0 0 0 0 0 0 0 0 0 0 0 0 0 0 0 0 0 0 0 0
0 0 0 0 0 0 0 0 0 0 0 0 0 0 0 0 0 0 0 0 0 0 0 0 0 0 0 0 0 0 0 0 0 0 0 0 0 0
0 0 0 0 0 0 0 0 0 0 0 0 0 0 0 0 0 0 0 0 0 0 0 0 0 0 0 0 0 0 0 0 0 0 0 0 0 0
0 0 0 0 0 0 0 0 0 0 0 0 0 0 0 0 0 0 0 0 0 0 0 0 0 0 0 0 0 0 0 0 0 0 0 0 0 0
0 0 0 0 0 0 0 0 0 0 0 0 0 0 0 0 0 0 0 0 0 0 0 0 0 0 0 0 0 0 0 0 0 0 0 0 0 0
0 0 0 0 0 0 0 0 0 0 0 0 0 0 0 0 0 0 0 0 0 0 0 0 0 0 0 0 0 0 0 0 0 0 0 0 0 0
0 0 0 0 0 0 0 0 0 0 0 0 0 0 0 0 0 0 0 0 0 0 0 0 0 0 0 0 0 0 0 0 0 0 0 0 0 0
0 0 0 0 0 0 0 0 0 0 0 0 0 0 0 0 0 0 0 0 0 0 0 0 0 0 0 0 0 0 0 0 0 0 0 0 0 0
0 0 0 0 0 0 0 0 0 0 0 0 0 0 0 0 0 0 0 0 -0 -0 -0 -0 0 0 0 0 0 0 0 0 0 0 0 0 0 0
0 0 0 0 0 0 0 0 0 0 0 0 0 0 0 0 0 0 0 0 0 0 0 0 0 0 0 0 0 0 0 0 0 0 0 0 0 0
0 0 0 0 0 0 0 0 0 0 0 0 0 0 0 0 0 0 0 0 0 0 0 0 0 0 0 0 0 0 0 0 0 0 0 0 0 0
0 0 0 0 0 0 0 0 0 0 0 0 0 0 0 0 0 0 0 0 0 0 0 0 0 0 0 0 0 0 0 0 0 0 0 0 0 0
0 0 0 0 0 0 0 0 0 0 0 0 0 0 0 0 0 0 0 0 0 0 0 0 0 0 0 0 0 0 0 0 0 0 0 0 0 0
0 0 0 0 0 0 0 0 0 0 0 0 0 0 0 0 0 0 0 0 0 0 0 0 0 0 0 0 0 0 0 0 0 0 0 0 0 0
0 0 0 0 0 0 0 0 0 0 0 0 0 0 0 0 0 0 0 0 0 0 0 0 0 0 0 0 0 0 0 0 0 0 0 0 0 0
0 0 0 0 0 -0 -0 -0 -0 -0 0 0 0 0 0 0 0 0 0 0 0 0 0 0 0 0 0 0 0 0 0 0 0 0 0 0 0 0
Wind_Speed
7 7 6 5 5 4 4 4 5 4 4 3 2 2 3 3 6 6 5 10 11 9 8 7 8 7 6 5 4 3 2 2 2 1 1 1 2 3
5 6 6 5 5 4 4 4 4 5 4 3 3 2 3 4 6 5 4 8 9 8 7 7 7 7 6 5 5 4 4 3 3 2 1 1 1 2
4 5 6 6 5 5 4 4 4 4 4 2 1 2 3 5 4 4 4 4 4 7 7 7 7 8 7 6 6 5 5 4 3 2 2 2 2 3
5 5 6 5 6 5 5 5 5 4 4 4 2 2 3 4 5 5 4 5 4 8 8 9 9 9 8 7 6 6 6 5 5 4 4 4 4 5
3 5 6 6 6 5 6 5 4 4 3 4 3 2 2 4 5 5 6 5 6 8 10 10 10 10 9 8 7 7 7 6 6 6 6 6 7 7
1 3 5 6 6 7 6 6 5 5 4 5 4 3 3 4 5 6 5 4 5 6 7 8 10 10 9 8 8 8 7 7 7 7 7 7 7 7
1 2 3 6 8 7 6 6 7 5 5 5 5 4 4 5 5 4 6 6 5 4 5 5 5 5 5 7 8 8 8 8 8 8 7 7 7 8
2 2 3 4 7 8 9 10 9 7 6 5 4 6 5 5 5 7 7 6 4 3 4 4 4 4 4 3 6 8 8 8 8 8 7 7 8 9
2 2 3 4 5 4 7 8 6 8 8 6 7 6 6 6 8 8 6 4 4 6 5 4 3 4 3 4 8 8 8 8 8 8 7 8 8 9
3 3 4 4 4 5 6 6 4 4 4 5 6 5 5 7 7 7 8 7 6 4 3 4 2 2 3 3 6 7 7 7 7 7 7 7 7 7
4 4 4 4 7 8 7 7 6 4 6 8 8 7 10 12 11 9 8 8 5 2 2 4 3 3 2 2 3 6 6 6 6 7 7 6 6 7
4 4 6 6 7 7 6 7 7 5 6 7 8 8 7 9 11 9 8 8 5 3 3 4 4 3 3 1 1 2 3 4 5 5 6 6 5 4
3 3 3 7 7 7 6 5 7 7 6 7 7 6 6 5 4 4 5 6 5 3 5 5 4 3 3 3 1 0 1 0 1 2 4 4 5 4
3 2 3 6 7 7 6 8 11 9 6 6 6 5 5 4 4 5 6 5 4 4 6 5 4 4 4 3 2 1 1 1 1 1 1 2 3 3
3 5 7 7 7 6 7 10 8 6 5 6 5 4 3 4 5 5 6 7 8 7 4 2 4 5 4 4 4 3 2 1 1 2 1 1 1 1
4 6 8 9 7 7 7 6 4 4 5 5 4 4 3 4 4 4 4 4 5 5 6 6 4 5 4 3 4 3 3 3 2 2 2 1 1 1
3 4 4 4 4 4 4 4 4 4 4 3 4 4 4 4 3 3 3 3 3 3 2 4 5 6 5 4 3 2 2 1 2 2 2 1 2 3
5 4 3 3 3 3 4 3 3 4 3 4 4 4 4 4 3 2 3 3 4 3 2 2 2 3 4 4 3 3 2 2 1 2 2 2 3 3
4 3 3 2 3 3 3 3 2 2 3 4 4 4 4 4 4 3 3 3 3 3 2 2 2 3 3 1 2 1 3 2 2 1 2 3 3 3
2 2 2 2 2 2 3 2 3 3 3 3 3 4 4 4 4 4 4 4 3 3 2 1 2 3 4 4 3 1 2 3 3 2 2 1 2 3
1 2 2 2 2 2 2 3 3 3 3 3 3 4 4 4 4 4 4 5 4 3 3 3 2 3 3 3 2 1 2 3 5 4 3 2 1 2
2 3 2 3 3 3 3 3 3 3 3 3 3 3 3 4 4 5 5 4 3 4 4 2 2 2 2 3 3 2 2 2 2 4 6 7 4 4
4 4 3 3 3 3 3 3 4 3 3 3 3 3 4 3 3 4 4 4 4 3 3 3 2 2 2 2 3 2 2 2 1 2 4 8 12 13
Wind_Direction
202 196 191 192 187 181 168 160 156 172 204 198 189 196 175 164 177 181 181 192 195 199 198 191 183 177 171 166 163 152 148 131 135 161 233 290 307 312
198 194 194 191 181 179 175 168 163 161 184 193 189 177 163 155 154 158 169 174 185 184 182 177 169 160 152 145 133 124 119 114 104 97 77 8 336 336
188 189 195 185 180 179 173 169 171 158 162 171 163 141 133 135 131 128 124 138 155 161 160 154 145 137 131 123 119 112 103 94 82 69 56 42 27 13
187 182 184 180 179 177 175 177 173 161 155 156 153 141 132 142 134 130 125 120 115 123 129 125 120 115 112 110 108 106 100 91 81 73 65 57 51 49
186 184 177 174 178 172 175 174 169 163 144 144 149 137 121 129 122 116 113 107 113 113 111 109 108 105 104 104 104 102 97 89 79 72 67 67 64 60
170 177 175 177 180 175 172 168 162 155 148 144 139 131 125 128 129 130 122 109 109 106 98 97 97 96 98 104 104 100 96 90 84 79 75 71 65 62
96 139 161 173 178 174 166 164 159 157 156 150 143 136 141 146 147 140 129 117 96 101 99 87 84 77 76 87 94 98 97 94 90 85 80 76 73 73
90 97 124 143 163 163 160 163 165 165 162 155 153 154 155 151 138 140 137 138 125 123 106 88 77 79 66 71 92 98 98 95 90 88 86 84 81 79
83 100 109 114 120 127 141 146 157 167 166 158 157 161 159 159 149 146 149 136 126 141 117 96 77 75 56 69 90 95 95 94 93 93 94 90 84 79
73 86 102 105 113 116 115 108 105 118 155 156 157 160 156 152 150 143 135 108 97 107 106 109 103 83 60 42 74 88 89 90 93 95 97 92 87 81
69 71 94 103 116 114 111 107 95 85 91 109 122 128 136 138 136 129 130 132 126 130 102 112 125 107 76 39 45 68 79 81 84 91 97 100 95 81
66 61 70 93 108 107 112 114 108 100 100 91 89 92 106 125 133 143 146 143 132 141 149 119 136 136 125 84 39 35 50 57 67 70 84 98 111 93
75 59 62 86 95 96 98 106 116 112 102 98 93 89 88 91 97 107 128 143 138 145 158 132 137 141 133 140 159 174 136 59 35 34 56 87 110 117
77 60 67 84 94 98 98 108 110 103 98 96 95 91 93 92 92 94 94 83 83 128 151 142 139 152 137 138 163 162 145 177 148 121 58 60 78 99
70 74 79 83 84 86 102 108 105 102 104 102 104 97 91 101 98 89 78 77 66 62 72 102 132 133 131 145 154 154 163 206 179 168 173 172 183 133
59 67 73 74 76 82 89 92 94 109 116 115 111 100 91 89 94 101 101 92 77 43 30 42 92 123 121 124 137 150 163 177 182 176 175 212 239 215
67 64 63 67 71 71 75 80 89 101 103 105 110 112 108 103 97 90 95 87 95 103 55 35 52 67 81 118 123 141 153 171 182 167 154 208 255 232
79 77 76 78 88 94 99 92 89 105 115 119 121 123 125 124 116 99 94 107 117 124 126 121 90 65 54 36 69 146 157 180 183 166 157 179 258 256
82 88 94 98 99 104 110 111 111 117 124 129 132 134 131 128 127 128 124 119 122 129 135 133 117 114 120 197 298 141 167 177 162 169 192 193 227 255
101 122 126 126 121 122 124 120 117 117 120 131 136 140 140 137 138 144 149 147 143 138 138 145 164 165 173 185 200 224 187 171 170 189 213 227 259 294
147 147 150 149 146 142 138 133 132 136 139 137 139 144 145 140 145 154 157 156 144 149 169 198 203 149 118 98 99 277 265 215 190 185 181 180 263 310
175 169 167 161 155 152 147 140 134 136 140 140 146 150 152 152 157 160 161 160 166 170 178 173 137 124 129 155 187 219 256 272 254 233 219 196 182 204
188 181 177 170 164 159 156 157 156 161 163 160 158 158 155 154 158 160 163 163 158 160 154 156 153 154 172 177 186 205 223 233 255 286 272 244 233 242